This is the latest recevied weather packets stored in our database for station/object N9BID. If no packets are shown the sender has not sent any weather packets the latest 10 day(s).
| Time | Temp. | Humidity | Pressure | Rain* | Wind** | Luminosity | Snow |
|---|---|---|---|---|---|---|---|
| 1777320974 | 11.67° C | 99% | 993 hPa | 0 mm | - | 23 W/m² | - |
| 1777320672 | 11.67° C | 99% | 993.1 hPa | 0 mm | - | 41 W/m² | - |
| 1777320369 | 11.67° C | 99% | 993 hPa | 0 mm | - | 30 W/m² | - |
| 1777320066 | 11.67° C | 99% | 993.4 hPa | 0 mm | - | 46 W/m² | - |
| 1777319762 | 11.11° C | 99% | 993.1 hPa | 0 mm | - | 49 W/m² | - |
| 1777319460 | 11.11° C | 99% | 993.4 hPa | 0 mm | - | 38 W/m² | - |
| 1777319157 | 11.11° C | 99% | 993.7 hPa | 0 mm | - | 44 W/m² | - |
| 1777318854 | 11.11° C | 99% | 993.3 hPa | 0 mm | - | 55 W/m² | - |
| 1777318550 | 11.11° C | 99% | 993.8 hPa | 1.27 mm | - | 47 W/m² | - |
| 1777318247 | 11.11° C | 99% | 993.6 hPa | 1.27 mm | - | 58 W/m² | - |
| 1777317944 | 11.11° C | 99% | 993.5 hPa | 0 mm | - | 42 W/m² | - |
| 1777317641 | 11.11° C | 99% | 994 hPa | 0 mm | - | 37 W/m² | - |
| 1777317338 | 11.11° C | 99% | 993.9 hPa | 0 mm | - | 37 W/m² | - |
| 1777317033 | 10.56° C | 99% | 994.1 hPa | 0 mm | - | 34 W/m² | - |
| 1777316731 | 10.56° C | 99% | 994.1 hPa | 0 mm | - | 35 W/m² | - |
| 1777316427 | 10.56° C | 99% | 994.1 hPa | 1.78 mm | - | 41 W/m² | - |
| 1777316124 | 10.56° C | 99% | 994.1 hPa | 1.78 mm | - | 37 W/m² | - |
| 1777315822 | 10.56° C | 99% | 994.5 hPa | 0 mm | - | 24 W/m² | - |
| 1777315521 | 10.56° C | 99% | 994.5 hPa | 0 mm | - | 17 W/m² | - |
| 1777315218 | 10.56° C | 99% | 994.2 hPa | 0 mm | - | 27 W/m² | - |
| 1777314915 | 10.56° C | 99% | 993.7 hPa | 0 mm | - | 30 W/m² | - |
| 1777314610 | 11.11° C | 99% | 994.4 hPa | 0 mm | - | 31 W/m² | - |
| 1777314308 | 10.56° C | 99% | 994.1 hPa | 0 mm | - | 47 W/m² | - |
| 1777314005 | 11.11° C | 99% | 993.1 hPa | 0 mm | - | 29 W/m² | - |
| 1777313701 | 11.11° C | 99% | 993 hPa | 0 mm | - | 63 W/m² | - |
* Rain latest hour (hover to see other rain measurements)
** Current wind speed in m/s (hover to see current wind gust speed)